Location: Newark
(25.4297°S, 49.2719°W)
Time: 03:51:39
(UTC+00:00)

Hubble Space Telescope - Pass Details

Date: 25 June 2021
Orbit: 535 x 539 km, 28.5° (Epoch: 28 July)

Event Time Altitude Azimuth Distance (km) Brightness Sun altitude
Exits shadow 08:39:35 11° 321° (NW) 1,720 3.1 -18.4°
Maximum altitude 08:40:11 11° 330° (NNW) 1,702 3.2 -18.2°
Drops below altitude 10° 08:41:32 10° 349° (N) 1,785 3.5 -18.0°
Sets 08:45:17 0° 24° (NNE) 2,668 5.0 -17.1°
